[[{"header":{"parameterUnit":"m.s-1","parameterCategory":1,"la1":30.2991,"la2":30.254,"lo1":-89.0895,"lo2":-89.0444,"dy":0.0017,"dx":0.0017,"nx":28,"ny":28,"refTime":"2023-11-13T09:00:00:Z","depth":0,"parameterNumber":2,"parameterNumberName":"U-component_of_WINDS"},"data":[0,0,0,0,0,0,0,0,0,0,0,0,0,0,0,0,0,0,0,0,0,0,0,0,0,0,0,0,0,0,0,0,0,0,0,0,0,0,0,0,0,0,0,0,0,0,0,0,0,0,0,0,0,0,0,0,0,0,-3.0788,-3.079,0,-3.0942,-3.0944,-3.0946,-3.0921,-3.0919,-3.0916,-3.0914,-3.1073,-3.1079,-3.1086,0,0,0,0,0,0,0,0,0,0,0,0,0,-3.0472,-3.0478,-3.0788,-3.079,-3.0792,-3.0942,-3.0944,-3.0946,-3.0922,-3.0919,-3.0915,-3.0912,-3.1071,-3.1078,-3.1087,0,0,0,0,0,0,0,0,0,0,0,0,0,-3.0616,-3.048,-3.0788,-3.0798,-3.08,-3.0942,-3.0944,-3.0947,-3.0922,-3.0919,-3.0915,-3.0911,-3.1068,-3.1078,-3.1088,-3.1229,0,0,-3.1118,-3.1123,0,0,0,0,0,0,0,0,-3.0608,-3.0628,-3.0794,-3.0797,-3.08,-3.0908,-3.0891,-3.1042,-3.0924,-3.0876,-3.0913,-3.0909,-3.1021,-3.1035,-3.1073,-3.1237,-3.1244,-3.1119,-3.1125,-3.113,-3.1133,0,0,0,0,0,0,0,-3.0598,-3.0621,-3.0849,-3.0797,-3.08,-3.0795,-3.0811,-3.092,-3.0969,-3.088,-3.0878,-3.0897,-3.1022,-3.1063,-3.1076,-3.1246,-3.1119,-3.1128,-3.1134,-3.1138,-3.1535,-3.154,0,0,0,0,0,0,-3.0585,-3.0613,-3.0844,-3.0854,-3.0692,-3.0804,-3.0822,-3.0878,-3.0968,-3.0978,-3.09,-3.0895,-3.1048,-3.1065,-3.1082,-3.1255,-3.113,-3.1139,-3.1145,-3.1531,-3.1536,-3.1541,0,0,0,0,0,0,-3.0579,-3.0606,-3.0838,-3.0733,-3.0762,-3.0813,-3.0877,-3.0883,-3.0924,-3.0983,-3.0992,-3.0933,-3.1045,-3.1068,-3.1193,-3.126,-3.1144,-3.1153,-3.1526,-3.1533,-3.1539,-3.1602,0,0,0,0,0,0,-3.057,-3.0604,-3.0658,-3.0735,-3.0768,-3.0947,-3.0881,-3.0889,-3.0941,-3.0936,-3.1016,-3.1026,-3.1044,-3.1178,-3.1203,-3.1272,-3.1161,-3.152,-3.1529,-3.1537,-3.1595,-3.1611,-3.1624,0,0,0,0,0,-3.0559,-3.067,-3.0661,-3.0689,-3.0837,-3.095,-3.097,-3.0988,-3.0947,-3.1002,-3.104,-3.1023,-3.1248,-3.1191,-3.1219,-3.1292,-3.1516,-3.1526,-3.1536,-3.1588,-3.1607,-3.1624,0,0,0,0,0,0,-3.0601,-3.068,-3.0671,-3.081,-3.0874,-3.0946,-3.1016,-3.1008,-3.1085,-3.1077,-3.1096,-3.1115,-3.1242,-3.1279,-3.1214,-3.1435,-3.1376,-3.1393,-3.1406,-3.1425,-3.144,-3.1429,-3.1169,0,0,0,0,0,-3.0626,-3.0711,-3.0776,-3.0893,-3.0925,-3.0965,-3.1015,-3.1024,-3.1091,-3.1118,-3.1165,-3.1231,-3.1316,-3.1372,-3.1454,-3.1599,-3.1617,-3.1663,-3.1678,-3.1689,-3.1704,-3.1785,-3.1807,-3.1575,-3.1575,-3.1574,0,0,-3.0679,-3.0733,-3.0786,-3.0903,-3.0953,-3.1042,-3.0988,-3.1084,-3.115,-3.1132,-3.1254,-3.1291,-3.1366,-3.1502,-3.1564,-3.1537,-3.1772,-3.1702,-3.1711,-3.172,-3.1798,-3.182,-3.1839,-3.1582,-3.158,-3.1579,0,0,-3.0823,-3.0871,-3.0975,-3.1026,-3.1102,-3.1129,-3.1153,-3.1227,-3.1251,-3.1373,-3.1362,-3.1441,-3.1588,-3.1642,-3.1688,-3.1852,-3.184,-3.1878,-3.1956,-3.2035,-3.2053,-3.2069,-3.213,-3.2151,-3.1892,-3.1892,-3.1892,0,-3.088,-3.1013,-3.1029,-3.1127,-3.1179,-3.1166,-3.1271,-3.132,-3.1419,-3.1456,-3.1423,-3.1608,-3.1657,-3.1806,-3.1846,-3.1884,-3.1914,-3.187,-3.2049,-3.2066,-3.2081,-3.2139,-3.2161,-3.1896,-3.1896,-3.1895,-3.1895,0,-3.108,-3.1173,-3.1247,-3.1344,-3.1404,-3.1504,-3.1536,-3.1595,-3.1598,-3.1628,-3.1753,-3.1811,-3.1906,-3.1941,-3.1945,-3.2092,-3.2072,-3.2044,-3.1987,-3.2107,-3.2162,-3.2184,-3.1902,-3.1901,-3.1899,-3.1898,0,0,-3.1256,-3.136,-3.1387,-3.1431,-3.1515,-3.1587,-3.1687,-3.1779,-3.183,-3.1898,-3.1984,-3.2109,-3.2083,-3.2136,-3.2146,-3.2214,-3.2343,-3.2178,-3.218,-3.2209,-3.251,-3.2533,-3.2558,-3.2334,-3.2338,-3.2342,-3.2505,0,-3.1409,-3.1587,-3.1604,-3.1763,-3.185,-3.1838,-3.1926,-3.1987,-3.2017,-3.2095,-3.2128,-3.2216,-3.2175,-3.2207,-3.2274,-3.2313,-3.2404,-3.2301,-3.2416,-3.242,-3.24,-3.2586,-3.261,-3.2761,-3.2526,-3.253,-3.2532,0,-3.1612,-3.1687,-3.1855,-3.1927,-3.1964,-3.2043,-3.2129,-3.2203,-3.2272,-3.2289,-3.2348,-3.2348,-3.2453,-3.2389,-3.2534,-3.2463,-3.2511,-3.2537,-3.2543,-3.2556,-3.2485,-3.2607,-3.281,-3.2833,-3.2566,-3.2563,-3.2561,0,-3.1726,-3.1869,-3.1988,-3.2026,-3.2113,-3.2168,-3.2207,-3.2272,-3.2326,-3.2401,-3.2437,-3.2523,-3.2571,-3.2638,-3.2662,-3.2613,-3.2806,-3.2744,-3.2824,-3.2824,-3.2868,-3.2865,-3.3083,-3.2894,-3.2894,-3.2894,-3.2893,0,-3.1897,-3.2001,-3.2041,-3.2115,-3.2231,-3.2249,-3.2364,-3.24,-3.2458,-3.2539,-3.2533,-3.2609,-3.2635,-3.2716,-3.2735,-3.2853,-3.2874,-3.2892,-3.2896,-3.2894,-3.2892,-3.2927,-3.2918,-3.29,-3.2898,-3.2897,-3.2896,0,-3.2045,-3.2076,-3.2206,-3.2277,-3.2297,-3.238,-3.2441,-3.2513,-3.2541,-3.2644,-3.2669,-3.2714,-3.2808,-3.2838,-3.2952,-3.2965,-3.3104,-3.3098,-3.3081,-3.3082,-3.3162,-3.3155,-3.3413,-3.3448,-3.3233,-3.3235,-3.3237,0,-3.2154,-3.2233,-3.2313,-3.2367,-3.2408,-3.2494,-3.255,-3.257,-3.2629,-3.2713,-3.2775,-3.2868,-3.2945,-3.3097,-3.314,-3.3228,-3.3225,-3.3309,-3.3238,-3.3234,-3.3229,-3.3225,-3.3234,-3.3323,-3.3326,-3.3327,-3.3329,0,-3.2343,-3.2354,-3.2435,-3.2521,-3.2587,-3.2656,-3.2722,-3.2766,-3.2797,-3.2862,-3.2959,-3.3018,-3.3135,-3.3229,-3.3318,-3.3358,-3.335,-3.335,-3.3374,-3.3374,-3.3362,-3.3372,-3.312,-3.3345,-3.3343,-3.3342,-3.3341,-3.3341,-3.2477,-3.2547,-3.2615,-3.2705,-3.2756,-3.2818,-3.289,-3.2927,-3.3008,-3.3105,-3.3111,-3.3217,-3.3284,-3.3403,-3.3447,-3.353,-3.3506,-3.354,-3.3549,-3.3558,-3.3565,-3.3347,-3.3546,-3.3546,-3.3545,-3.3545,-3.3545,0,-3.2668,-3.271,-3.2793,-3.2886,-3.2957,-3.2941,-3.3013,-3.3074,-3.3166,-3.323,-3.3305,-3.3417,-3.3507,-3.3557,-3.3648,-3.3705,-3.3704,-3.3729,-3.3726,-3.3736,-3.358,-3.3552,-3.3728,-3.3728,-3.3728,-3.3728,-3.3728,-3.3728,-3.2776,-3.2896,-3.2915,-3.306,-3.3102,-3.3205,-3.3248,-3.3306,-3.3356,-3.3482,-3.3557,-3.3589,-3.3647,-3.3742,-3.3825,-3.3837,-3.3872,-3.39,-3.391,-3.3765,-3.3746,-3.3729,-3.3702,-3.3907,-3.3907,-3.4059,-3.406,-3.4062]},{"header":{"parameterUnit":"m.s-1","parameterCategory":1,"la1":30.2991,"la2":30.254,"lo1":-89.0895,"lo2":-89.0444,"dy":0.0017,"dx":0.0017,"nx":28,"ny":28,"refTime":"2023-11-13T09:00:00:Z","depth":0,"parameterNumber":3,"parameterNumberName":"V-component_of_WINDS"},"data":[0,0,0,0,0,0,0,0,0,0,0,0,0,0,0,0,0,0,0,0,0,0,0,0,0,0,0,0,0,0,0,0,0,0,0,0,0,0,0,0,0,0,0,0,0,0,0,0,0,0,0,0,0,0,0,0,0,0,-4.758,-4.758,0,-4.7574,-4.7573,-4.7573,-4.7501,-4.7499,-4.7498,-4.7496,-4.749,-4.7491,-4.7493,0,0,0,0,0,0,0,0,0,0,0,0,0,-4.753,-4.7531,-4.758,-4.758,-4.758,-4.7574,-4.7573,-4.7573,-4.7501,-4.7499,-4.7497,-4.7495,-4.7489,-4.7491,-4.7493,0,0,0,0,0,0,0,0,0,0,0,0,0,-4.754,-4.7532,-4.758,-4.7543,-4.754,-4.7574,-4.7573,-4.7573,-4.7502,-4.7499,-4.7496,-4.7494,-4.7489,-4.7491,-4.7493,-4.7562,0,0,-4.75,-4.7501,0,0,0,0,0,0,0,0,-4.754,-4.7542,-4.7549,-4.7546,-4.7542,-4.7535,-4.7553,-4.7569,-4.7503,-4.7516,-4.7496,-4.7493,-4.7507,-4.7508,-4.7512,-4.7561,-4.7561,-4.75,-4.7502,-4.7503,-4.7503,0,0,0,0,0,0,0,-4.7539,-4.7542,-4.7577,-4.7549,-4.7545,-4.7527,-4.7525,-4.7556,-4.7527,-4.7515,-4.751,-4.751,-4.7505,-4.751,-4.7512,-4.7561,-4.75,-4.7502,-4.7504,-4.7505,-4.7665,-4.7668,0,0,0,0,0,0,-4.7544,-4.7542,-4.7578,-4.7577,-4.7534,-4.753,-4.7528,-4.754,-4.7527,-4.7522,-4.7512,-4.7507,-4.7508,-4.7509,-4.7511,-4.759,-4.7503,-4.7505,-4.7506,-4.7662,-4.7666,-4.7669,0,0,0,0,0,0,-4.7543,-4.7548,-4.7578,-4.7558,-4.7561,-4.7534,-4.7548,-4.7542,-4.7547,-4.7524,-4.7519,-4.7523,-4.7506,-4.7508,-4.7549,-4.7589,-4.7506,-4.7508,-4.7659,-4.7663,-4.7667,-4.7749,0,0,0,0,0,0,-4.7542,-4.7548,-4.7574,-4.7559,-4.7562,-4.7617,-4.755,-4.7543,-4.7551,-4.7544,-4.7533,-4.7529,-4.7504,-4.7546,-4.7552,-4.759,-4.751,-4.7655,-4.7661,-4.7666,-4.7742,-4.7755,-4.7766,0,0,0,0,0,-4.754,-4.7597,-4.7575,-4.758,-4.7594,-4.7619,-4.762,-4.759,-4.7555,-4.758,-4.7566,-4.7529,-4.7584,-4.7551,-4.7557,-4.7597,-4.7652,-4.7659,-4.7665,-4.7737,-4.7753,-4.7766,0,0,0,0,0,0,-4.7617,-4.7595,-4.757,-4.7624,-4.7624,-4.7607,-4.7638,-4.7608,-4.7618,-4.761,-4.7572,-4.757,-4.7618,-4.7611,-4.7575,-4.7662,-4.7612,-4.762,-4.7664,-4.7679,-4.7691,-4.7691,-4.7512,0,0,0,0,0,-4.7641,-4.7663,-4.7642,-4.7692,-4.7693,-4.7666,-4.7675,-4.7652,-4.765,-4.765,-4.7638,-4.7638,-4.7654,-4.7666,-4.7681,-4.7741,-4.7737,-4.7771,-4.7783,-4.7793,-4.78,-4.7831,-4.7846,-4.769,-4.769,-4.769,0,0,-4.7689,-4.7679,-4.7696,-4.7707,-4.7704,-4.7727,-4.7666,-4.7694,-4.7711,-4.7654,-4.7692,-4.7684,-4.7681,-4.7732,-4.7753,-4.7728,-4.7843,-4.7801,-4.781,-4.7811,-4.7839,-4.7854,-4.7867,-4.7694,-4.7694,-4.7693,0,0,-4.7789,-4.7785,-4.7825,-4.7823,-4.7819,-4.78,-4.781,-4.7797,-4.7789,-4.7827,-4.7784,-4.7804,-4.7834,-4.7833,-4.7837,-4.7936,-4.7903,-4.7942,-4.8004,-4.8035,-4.8047,-4.8058,-4.8093,-4.8106,-4.7949,-4.7949,-4.795,0,-4.785,-4.7884,-4.785,-4.788,-4.7886,-4.7835,-4.7875,-4.7875,-4.7876,-4.7881,-4.7852,-4.7888,-4.7883,-4.7932,-4.7957,-4.7962,-4.7971,-4.7943,-4.8048,-4.8058,-4.8068,-4.8101,-4.8114,-4.7954,-4.7954,-4.7953,-4.7953,0,-4.7958,-4.7982,-4.8015,-4.8017,-4.8026,-4.8062,-4.8033,-4.8047,-4.8022,-4.8007,-4.8045,-4.8037,-4.8048,-4.8058,-4.8035,-4.8105,-4.8089,-4.8055,-4.8003,-4.8088,-4.8118,-4.813,-4.7961,-4.7959,-4.7958,-4.7957,0,0,-4.8108,-4.8089,-4.8102,-4.8101,-4.8093,-4.8111,-4.8143,-4.8154,-4.8166,-4.8169,-4.8195,-4.8221,-4.8189,-4.8193,-4.8169,-4.8196,-4.8274,-4.8158,-4.8158,-4.818,-4.835,-4.8375,-4.839,-4.8252,-4.8255,-4.8256,-4.835,0,-4.8203,-4.8258,-4.8228,-4.8286,-4.8308,-4.8259,-4.8287,-4.8285,-4.8272,-4.8288,-4.8272,-4.8291,-4.8248,-4.825,-4.8275,-4.826,-4.8308,-4.8253,-4.8276,-4.8277,-4.8278,-4.8406,-4.8433,-4.8522,-4.8362,-4.8364,-4.8365,0,-4.8323,-4.8329,-4.839,-4.8376,-4.8384,-4.841,-4.8417,-4.8433,-4.8429,-4.8417,-4.8422,-4.8391,-4.8422,-4.8372,-4.8413,-4.8377,-4.8384,-4.8379,-4.8381,-4.8382,-4.8326,-4.841,-4.855,-4.8563,-4.8383,-4.8382,-4.838,0,-4.8425,-4.8449,-4.8488,-4.8489,-4.8475,-4.8494,-4.8489,-4.8482,-4.849,-4.8496,-4.8501,-4.8511,-4.8516,-4.8525,-4.8497,-4.8463,-4.8543,-4.849,-4.8534,-4.8534,-4.8552,-4.8552,-4.8695,-4.8558,-4.8558,-4.8558,-4.8558,0,-4.8535,-4.8574,-4.8533,-4.8558,-4.86,-4.8564,-4.8607,-4.8596,-4.8591,-4.8612,-4.8571,-4.8592,-4.8554,-4.8571,-4.855,-4.8588,-4.8591,-4.8582,-4.8576,-4.8585,-4.8587,-4.859,-4.8583,-4.8561,-4.8561,-4.856,-4.8559,0,-4.8656,-4.8631,-4.867,-4.8652,-4.8649,-4.868,-4.8665,-4.8687,-4.867,-4.8697,-4.8701,-4.8675,-4.8693,-4.8666,-4.8682,-4.8667,-4.8719,-4.8704,-4.872,-4.8716,-4.8761,-4.8757,-4.8911,-4.8929,-4.8781,-4.8783,-4.8784,0,-4.8728,-4.8757,-4.8742,-4.8752,-4.8749,-4.8768,-4.8775,-4.8741,-4.8751,-4.8748,-4.877,-4.8784,-4.8794,-4.8825,-4.8807,-4.8818,-4.8803,-4.8856,-4.8804,-4.8813,-4.8803,-4.8802,-4.8804,-4.8867,-4.8869,-4.887,-4.8871,0,-4.8858,-4.8844,-4.8856,-4.8864,-4.8874,-4.8879,-4.8881,-4.8892,-4.8856,-4.8869,-4.8886,-4.8894,-4.8909,-4.8923,-4.893,-4.8924,-4.8892,-4.8888,-4.8898,-4.8908,-4.8916,-4.8912,-4.8749,-4.8884,-4.8883,-4.8882,-4.8881,-4.8881,-4.8956,-4.8979,-4.8972,-4.8987,-4.8984,-4.8987,-4.9005,-4.8991,-4.9004,-4.9013,-4.8993,-4.9015,-4.901,-4.9015,-4.9013,-4.903,-4.9007,-4.9022,-4.9026,-4.903,-4.9037,-4.8914,-4.9031,-4.9031,-4.9031,-4.903,-4.903,0,-4.9084,-4.9076,-4.909,-4.9093,-4.9105,-4.9073,-4.9073,-4.9085,-4.9105,-4.9102,-4.9112,-4.9132,-4.9146,-4.9129,-4.914,-4.9156,-4.9142,-4.916,-4.9159,-4.9158,-4.9058,-4.9047,-4.9172,-4.9172,-4.9172,-4.9172,-4.9172,-4.9172,-4.9152,-4.9188,-4.9173,-4.9207,-4.9199,-4.922,-4.9223,-4.9225,-4.9223,-4.9246,-4.9257,-4.9246,-4.9238,-4.9247,-4.9258,-4.9253,-4.9259,-4.9283,-4.9272,-4.9179,-4.9165,-4.9152,-4.9142,-4.9284,-4.9284,-4.9371,-4.9372,-4.9372]}]]